This is the latest recevied weather packets stored in our database for station/object KE5VT. If no packets are shown the sender has not sent any weather packets the latest 10 day(s).
| Time | Temp. | Humidity | Pressure | Rain* | Wind** | Luminosity | Snow |
|---|---|---|---|---|---|---|---|
| 1788101273 | 24.44° C | 93% | 1019.7 hPa | 0 mm | - | 157 W/m² | - |
| 1788100969 | 23.89° C | 94% | 1019.7 hPa | 0 mm | - | 135 W/m² | - |
| 1788100665 | 23.89° C | 94% | 1019.8 hPa | 0 mm | - | 162 W/m² | - |
| 1788100364 | 23.89° C | 95% | 1019.8 hPa | 0 mm | - | 120 W/m² | - |
| 1788100059 | 23.89° C | 94% | 1019.8 hPa | 0 mm | - | 77 W/m² | - |
| 1788099754 | 23.89° C | 94% | 1019.8 hPa | 0 mm | - | 73 W/m² | - |
| 1788099449 | 23.89° C | 94% | 1019.8 hPa | 0 mm | - | 66 W/m² | - |
| 1788099145 | 23.89° C | 94% | 1019.7 hPa | 0 mm | - | 55 W/m² | - |
| 1788098839 | 23.89° C | 94% | 1019.7 hPa | 0 mm | - | 63 W/m² | - |
| 1788098534 | 23.89° C | 94% | 1019.7 hPa | 0 mm | - | 69 W/m² | - |
| 1788098229 | 23.89° C | 94% | 1019.6 hPa | 0 mm | - | 62 W/m² | - |
| 1788097924 | 23.89° C | 95% | 1019.6 hPa | 0 mm | - | 56 W/m² | - |
| 1788097620 | 23.89° C | 94% | 1019.7 hPa | 0 mm | - | 71 W/m² | - |
| 1788097315 | 23.89° C | 95% | 1019.7 hPa | 0 mm | - | 59 W/m² | - |
| 1788097010 | 23.89° C | 95% | 1019.7 hPa | 0 mm | - | 62 W/m² | - |
| 1788096706 | 23.89° C | 95% | 1019.9 hPa | 0 mm | - | 41 W/m² | - |
| 1788096402 | 23.89° C | 95% | 1019.9 hPa | 0 mm | - | 58 W/m² | - |
| 1788096097 | 23.33° C | 96% | 1019.8 hPa | 0 mm | - | 70 W/m² | - |
| 1788095796 | 23.33° C | 96% | 1019.7 hPa | 0 mm | - | 38 W/m² | - |
| 1788095496 | 23.33° C | 96% | 1019.6 hPa | 0 mm | - | 25 W/m² | - |
| 1788095191 | 23.33° C | 96% | 1019.5 hPa | 0 mm | - | 47 W/m² | - |
| 1788094886 | 23.33° C | 97% | 1019.5 hPa | 0 mm | - | 48 W/m² | - |
| 1788094585 | 23.33° C | 97% | 1019.5 hPa | 0 mm | - | 49 W/m² | - |
| 1788094280 | 23.33° C | 97% | 1019.4 hPa | 0 mm | - | 44 W/m² | - |
| 1788093978 | 23.33° C | 98% | 1019.7 hPa | 0 mm | - | 34 W/m² | - |
* Rain latest hour (hover to see other rain measurements)
** Current wind speed in m/s (hover to see current wind gust speed)